Weather in Ozerny

Russia / Republic of Buryatia     52°55′47″N   111°41′49″E
temp.,
°C
wind,
m/s
gust,
m/s
humid.,
%
clouds,
%
prec.,
mm/h
press.,
hPa
HPBL,
m
16 june, wed
wed1623:00+8nw227554 0.0 100522
02:00+6w2284100 0.0 100621
05:00+5w358881 0.1 1007160
08:00+10wsw4467100 0.1 1005747
11:00+5w4889100 1.0 1008471
14:00+9nw456186 1.4 10061210
17:00+10nw4557100 0.1 10051038
20:00+7n377599 0.2 1006484
17 june, thu
thu1723:00+4nw2496100 1.5 1007155
02:00+4nw3697100 8.4 1007192
05:00+4nw349630 0.3 100695
08:00+11nw367411 0.3 1004367
11:00+16nnw694573 0.1 10011686
14:00+18nnw7103792 0.1 9992737
17:00+17nw81144100 0.0 9991628
20:00+11nw71465100 0.0 1001737
18 june, fri
fri1823:00+10nw61468100 0.0 1000494
02:00+9nw61466100 0.0 999458
05:00+9nw41265100 0.0 998418
08:00+13nnw5115199 0.0 9981215
11:00+15n5847100 0.0 9972003
14:00+13n4762100 0.4 9981490
17:00+10nw2390100 0.9 1000131
20:00+11nw2285100 1.3 100139
19 june, sat
sat1923:00+9nw1187100 0.0 100118
02:00+9nnw1190100 0.0 100215
05:00+8nne2393100 0.2 100274
08:00+10n368699 0.4 1002406
11:00+13nnw356678 0.1 1002894
14:00+15ne346398 1.1 10011051
17:00+15ene3460100 1.1 10021186
20:00+12ene237672 1.1 1004113
20 june, sun
sun2023:00+10nne2282100 0.0 100558
02:00+9nne2291100 0.1 100582
05:00+9nne249594 0.3 1006150
08:00+11ne4584100 0.4 1007689
11:00+15ne346099 0.1 10061279
14:00+18ene444998 0.3 10041651
17:00+17e345597 0.0 1004882
20:00+14ene247069 0.1 1006103